Waarnemingen

Advertentie
Mijn weer
Llerena, Spanje (8336): temperatuur & dauwpunt: 16.07.2018 16:00:00 - 22.07.2018 16:00:00 (CEST)Llerena, Spanje (8336): windsnelheid & windstoten: 16.07.2018 16:00:00 - 22.07.2018 16:00:00 (CEST)Llerena, Spanje (8336): windrichting: 16.07.2018 16:00:00 - 22.07.2018 16:00:00 (CEST)Llerena, Spanje (8336): luchtdruk: 16.07.2018 16:00:00 - 22.07.2018 16:00:00 (CEST)Llerena, Spanje (8336): zicht: 16.07.2018 16:00:00 - 22.07.2018 16:00:00 (CEST)Llerena, Spanje (8336): Zonneschijnduur: 16.07.2018 16:00:00 - 22.07.2018 16:00:00 (CEST)Llerena, Spanje (8336): neerslag: 16.07.2018 16:00:00 - 22.07.2018 16:00:00 (CEST)
Datum & Tijd tt [°C] td [°C] ff [km/u] ff [kn] fx [km/u] fx [kn] dd ppp [hPa] vv [km] sd [min] rr [mm]
22.07.2018 16:00:00 34,4 3,0 13 7 29 15 ZW 1009,1 20 60 0,0
22.07.2018 15:00:00 33,6 3,4 7 4 23 12 NW 1009,8 20 60 0,0
22.07.2018 14:00:00 32,8 4,5 10 6 26 14 WZW 1010,1 20 60 -
22.07.2018 13:00:00 31,2 7,0 11 6 23 12 WZW 1010,8 17 60 0,0
22.07.2018 12:00:00 29,2 5,9 12 6 23 12 ZZW 1011,2 15 60 0,0
22.07.2018 11:00:00 27,3 6,7 5 3 12 6 ZZW 1011,3 20 60 0,0
22.07.2018 10:00:00 23,3 9,3 6 4 13 7 WNW 1012,4 15 60 0,0
22.07.2018 09:00:00 19,8 10,2 11 6 15 8 W 1012,7 20 60 0,0
22.07.2018 08:00:00 15,3 9,7 6 4 14 7 W 1013,8 15 2 -
22.07.2018 07:00:00 16,7 9,7 11 6 17 9 NW 1013,2 20 0 0,0
22.07.2018 06:00:00 17,2 9,8 9 5 15 8 W 1012,7 17 0 0,0
22.07.2018 05:00:00 18,1 10,2 9 5 16 9 ZZW 1012,8 20 0 0,0
22.07.2018 04:00:00 18,3 10,4 11 6 18 10 W 1013,1 19 0 0,0
22.07.2018 03:00:00 19,3 10,5 12 6 22 12 WNW 1013,3 20 0 0,0
22.07.2018 02:00:00 20,3 10,6 9 5 21 11 WNW 1013,8 20 0 -
22.07.2018 01:00:00 21,7 9,3 12 7 30 16 NNW 1013,3 19 0 0,0
22.07.2018 00:00:00 22,8 6,1 10 6 18 10 N 1013,0 18 0 0,0
21.07.2018 23:00:00 25,0 6,2 16 8 19 10 N 1012,3 18 0 0,0
21.07.2018 22:00:00 26,6 6,1 8 4 26 14 ZZO 1011,3 20 14 0,0
21.07.2018 21:00:00 29,7 6,4 17 9 29 16 N 1009,9 19 60 0,0
21.07.2018 20:00:00 31,9 4,6 14 8 26 14 WNW 1009,1 20 60 -
21.07.2018 19:00:00 32,6 5,9 9 5 28 15 NW 1009,2 20 60 0,0
21.07.2018 18:00:00 33,3 5,8 14 7 22 12 WNW 1009,5 20 60 0,0
21.07.2018 17:00:00 32,8 5,3 11 6 27 14 NNW 1010,0 20 60 0,0
21.07.2018 16:00:00 32,4 7,3 9 5 25 14 W 1010,7 16 60 0,0
21.07.2018 15:00:00 31,2 7,6 8 4 23 13 NNW 1011,4 20 60 0,0
21.07.2018 14:00:00 29,8 8,3 6 3 22 12 NNO 1012,5 20 60 -
21.07.2018 13:00:00 27,7 9,6 6 3 19 11 ONO 1013,5 19 60 0,0
21.07.2018 12:00:00 26,5 12,2 6 3 14 7 N 1013,8 18 60 0,0
21.07.2018 11:00:00 24,1 13,1 4 2 19 10 NNW 1014,1 12 60 0,0
21.07.2018 10:00:00 21,8 13,2 8 4 20 11 N 1014,7 15 60 0,0
21.07.2018 09:00:00 18,8 12,7 4 2 16 9 W 1015,4 15 60 0,0
21.07.2018 08:00:00 16,0 11,8 8 5 16 9 NNW 1015,8 12 31 -
21.07.2018 07:00:00 14,6 11,0 8 4 17 9 NW 1016,0 14 0 0,0
21.07.2018 06:00:00 14,8 10,8 7 4 14 7 WZW 1015,6 16 0 0,0
21.07.2018 05:00:00 15,3 11,4 11 6 18 10 WZW 1015,4 17 0 0,0
21.07.2018 04:00:00 16,4 10,6 11 6 18 10 W 1015,5 16 0 0,0
21.07.2018 03:00:00 16,9 9,6 9 5 15 8 W 1015,9 18 0 0,0
21.07.2018 02:00:00 18,5 9,6 9 5 18 10 NW 1016,1 19 0 -
21.07.2018 01:00:00 19,8 9,3 9 5 25 14 NW 1016,0 19 0 0,0
21.07.2018 00:00:00 21,7 9,6 15 8 28 15 NNW 1015,0 20 0 0,0
20.07.2018 23:00:00 23,3 8,1 19 11 32 17 N 1014,1 19 0 0,0
20.07.2018 22:00:00 25,0 7,1 21 11 34 19 N 1013,0 20 15 0,0
20.07.2018 21:00:00 27,9 7,1 19 10 35 19 N 1012,0 20 60 0,0
20.07.2018 20:00:00 29,5 8,0 17 9 35 19 NNW 1011,4 20 60 -
20.07.2018 19:00:00 30,4 8,1 16 8 36 19 NNW 1011,2 18 60 0,0
20.07.2018 18:00:00 31,3 7,7 14 8 32 17 NW 1011,2 18 60 0,0
20.07.2018 17:00:00 31,3 8,3 9 5 33 18 NNW 1011,6 20 60 0,0
20.07.2018 16:00:00 30,6 6,4 17 9 33 18 NW 1012,2 20 60 0,0
20.07.2018 15:00:00 29,9 7,7 17 9 34 18 NW 1012,6 20 60 0,0
20.07.2018 14:00:00 28,7 9,9 14 7 29 15 NW 1013,4 16 60 -
20.07.2018 13:00:00 27,4 10,5 13 7 29 16 WNW 1014,0 16 60 0,0
20.07.2018 12:00:00 24,6 12,5 12 7 23 13 NNW 1014,8 14 60 0,0
20.07.2018 11:00:00 22,0 13,4 10 5 20 11 WNW 1015,4 9 60 0,0
20.07.2018 10:00:00 19,4 14,0 8 5 21 11 WNW 1015,9 16 50 0,0
20.07.2018 09:00:00 16,2 13,5 10 5 17 9 W 1016,6 11 54 0,0
20.07.2018 08:00:00 14,8 13,1 10 5 19 10 WZW 1016,3 9 16 -
20.07.2018 07:00:00 14,6 12,3 10 5 25 13 WZW 1016,2 11 0 0,0
20.07.2018 06:00:00 15,2 12,0 10 5 17 9 W 1016,2 14 0 0,0
20.07.2018 05:00:00 15,6 11,2 9 5 13 7 W 1016,3 16 0 0,0
20.07.2018 04:00:00 16,1 10,6 6 3 13 7 W 1016,4 18 0 0,0
20.07.2018 03:00:00 17,2 11,0 11 6 16 8 NW 1016,4 17 0 0,0
20.07.2018 02:00:00 18,6 10,4 5 3 24 13 WNW 1016,4 12 0 -
20.07.2018 01:00:00 20,5 10,0 14 8 24 13 NW 1016,1 19 0 0,0
20.07.2018 00:00:00 21,2 7,7 14 7 21 11 NNW 1015,9 20 0 0,0
19.07.2018 23:00:00 22,5 5,5 14 8 20 11 NW 1015,0 17 0 0,0
19.07.2018 22:00:00 24,5 3,8 14 8 22 12 WNW 1014,0 9 15 0,0
19.07.2018 21:00:00 27,8 2,9 19 10 31 17 WNW 1012,9 17 60 0,0
19.07.2018 20:00:00 30,0 0,6 21 11 34 19 WNW 1012,3 19 60 -
19.07.2018 19:00:00 31,5 1,7 22 12 36 20 NW 1011,7 16 60 0,0
19.07.2018 18:00:00 33,2 2,1 17 9 38 21 W 1011,3 19 60 0,0
19.07.2018 17:00:00 33,3 4,1 16 9 32 18 WNW 1011,5 20 60 0,0
19.07.2018 16:00:00 33,7 6,8 10 6 29 15 W 1011,5 18 60 0,0
19.07.2018 15:00:00 32,5 7,4 11 6 29 16 WNW 1012,3 16 60 0,0
19.07.2018 14:00:00 31,4 7,7 9 5 24 13 WZW 1013,0 20 60 -
19.07.2018 13:00:00 29,3 7,3 8 5 21 11 ZW 1013,7 17 60 0,0
19.07.2018 12:00:00 27,6 9,4 8 4 22 12 ZW 1014,2 19 60 0,0
19.07.2018 11:00:00 24,3 11,9 4 2 21 12 O 1014,9 9 60 0,0
19.07.2018 10:00:00 21,8 12,6 5 3 20 11 NO 1015,6 17 60 0,0
19.07.2018 09:00:00 18,8 12,5 14 8 20 11 NNO 1016,0 16 60 0,0
19.07.2018 08:00:00 15,8 12,0 9 5 22 12 O 1016,3 12 31 -
19.07.2018 07:00:00 14,8 11,6 15 8 22 12 O 1016,7 13 0 0,0
19.07.2018 06:00:00 15,6 11,8 12 6 19 11 N 1016,6 16 0 0,0
19.07.2018 05:00:00 16,6 11,9 9 5 17 9 N 1016,1 17 0 0,0
19.07.2018 04:00:00 17,5 11,8 3 1 19 11 NW 1016,0 18 0 0,0
19.07.2018 03:00:00 18,7 10,8 4 2 14 7 NNW 1015,8 20 0 0,0
19.07.2018 02:00:00 19,8 9,0 7 4 17 9 NW 1015,6 20 0 -
19.07.2018 01:00:00 21,2 5,9 11 6 20 11 NNW 1015,1 20 0 0,0
19.07.2018 00:00:00 21,8 4,8 12 6 14 8 N 1014,9 20 0 0,0
18.07.2018 23:00:00 23,1 4,1 8 4 16 9 N 1014,7 15 0 0,0
18.07.2018 22:00:00 25,4 5,6 12 7 24 13 WNW 1013,2 20 16 0,0
18.07.2018 21:00:00 28,6 6,1 18 10 30 16 WNW 1012,1 17 60 0,0
18.07.2018 20:00:00 32,2 3,2 12 7 29 16 ZW 1010,9 20 60 -
18.07.2018 19:00:00 33,1 4,8 17 9 27 15 WZW 1010,6 17 60 0,0
18.07.2018 18:00:00 33,6 6,8 18 10 34 18 WZW 1010,8 17 60 0,0
18.07.2018 17:00:00 33,8 7,7 14 7 29 15 ZW 1010,7 15 60 0,0
18.07.2018 16:00:00 33,2 6,4 16 8 37 20 ZW 1011,3 15 60 0,0
18.07.2018 15:00:00 32,3 5,8 16 9 31 17 WZW 1012,0 13 60 0,0
18.07.2018 14:00:00 31,7 5,9 12 6 29 16 ZW 1012,2 20 60 -
18.07.2018 13:00:00 29,9 6,5 14 8 27 14 Z 1013,1 20 60 0,0
18.07.2018 12:00:00 28,7 6,1 16 8 25 13 ZZW 1013,3 18 60 0,0
18.07.2018 11:00:00 26,5 6,5 17 9 26 14 ZZW 1013,7 18 60 0,0
18.07.2018 10:00:00 24,4 7,1 14 8 21 12 ZW 1014,1 20 60 0,0
18.07.2018 09:00:00 22,9 5,8 12 7 23 12 Z 1013,9 19 60 0,0
18.07.2018 08:00:00 20,6 6,1 11 6 39 21 ZZW 1014,1 20 32 -
18.07.2018 07:00:00 19,6 7,0 8 4 31 17 W 1014,0 16 0 0,0
18.07.2018 06:00:00 20,1 7,1 12 6 23 12 ZZO 1013,8 20 0 0,0
18.07.2018 05:00:00 20,2 13,9 11 6 20 11 ZZO 1013,6 16 0 0,0
18.07.2018 04:00:00 20,7 12,6 11 6 19 10 WNW 1013,6 17 0 0,0
18.07.2018 03:00:00 21,9 9,8 13 7 24 13 ZW 1013,4 20 0 0,0
18.07.2018 02:00:00 23,5 5,8 19 10 27 14 ZW 1012,8 20 0 -
18.07.2018 01:00:00 24,2 6,4 14 7 24 13 WZW 1012,6 20 0 0,0
18.07.2018 00:00:00 24,7 7,8 13 7 24 13 WZW 1011,9 20 0 0,0
17.07.2018 23:00:00 26,8 7,7 13 7 29 16 WZW 1011,2 17 0 0,0
17.07.2018 22:00:00 28,3 4,5 16 9 26 14 Z 1010,1 20 16 0,0
17.07.2018 21:00:00 31,0 1,3 17 9 30 16 Z 1009,4 20 60 0,0
17.07.2018 20:00:00 33,2 1,1 16 8 31 17 Z 1008,9 20 60 -
17.07.2018 19:00:00 34,1 1,7 16 9 34 18 Z 1008,8 14 60 0,0
17.07.2018 18:00:00 35,1 3,6 17 9 30 16 ZW 1009,1 20 60 0,0
17.07.2018 17:00:00 35,3 3,8 11 6 31 17 ZZW 1009,6 20 60 0,0
17.07.2018 16:00:00 35,4 2,9 10 5 26 14 ZZW 1010,1 20 60 0,0
17.07.2018 15:00:00 33,9 2,7 13 7 27 15 ZZO 1011,1 20 60 0,0
17.07.2018 14:00:00 31,6 6,5 11 6 25 13 O 1012,1 20 60 -
17.07.2018 13:00:00 30,9 7,4 8 5 29 16 ONO 1012,9 18 60 0,0
17.07.2018 12:00:00 29,5 8,0 10 5 26 14 O 1013,6 20 60 0,0
17.07.2018 11:00:00 27,9 10,2 5 3 12 7 O 1014,0 19 60 0,0
17.07.2018 10:00:00 25,0 12,5 4 2 16 9 NNO 1014,9 19 60 0,0
17.07.2018 09:00:00 21,9 13,3 6 3 19 11 N 1015,5 18 59 0,0
17.07.2018 08:00:00 19,2 13,2 3 2 16 9 ZO 1016,2 11 34 -
17.07.2018 07:00:00 17,6 12,3 3 1 16 9 ONO 1016,7 14 0 0,0
17.07.2018 06:00:00 17,8 12,2 1 1 8 4 ZO 1016,6 18 0 0,0
17.07.2018 05:00:00 18,2 12,2 4 2 15 8 WNW 1016,7 15 0 0,0
17.07.2018 04:00:00 18,1 11,7 5 3 13 7 W 1017,1 15 0 0,0
17.07.2018 03:00:00 19,3 11,8 5 3 10 6 NNW 1017,2 16 0 0,0
17.07.2018 02:00:00 20,3 10,2 5 3 24 13 NNW 1017,4 19 0 -
17.07.2018 01:00:00 21,6 5,5 3 1 17 9 NO 1017,2 19 0 0,0
17.07.2018 00:00:00 22,4 4,5 5 3 17 9 N 1017,1 18 0 0,0
16.07.2018 23:00:00 22,6 4,6 6 4 19 10 N 1017,1 20 0 0,0
16.07.2018 22:00:00 24,8 5,0 12 6 24 13 N 1016,2 19 17 0,0
16.07.2018 21:00:00 27,2 4,8 13 7 21 11 N 1015,6 20 60 0,0
16.07.2018 20:00:00 28,9 4,3 10 5 24 13 NNO 1015,3 20 60 -
16.07.2018 19:00:00 29,5 4,1 8 4 35 19 N 1015,2 19 60 0,0
16.07.2018 18:00:00 30,1 4,6 7 4 27 15 ONO 1015,4 20 60 0,0
16.07.2018 17:00:00 29,3 4,6 11 6 24 13 N 1016,1 13 60 0,0
16.07.2018 16:00:00 29,4 6,1 9 5 30 16 W 1016,3 20 60 0,0

tt = temperatuur
td = dauwpunt
ff = windsnelheid
fx = windstoten
dd = windrichting
ppp = luchtdruk
vv = zicht
sd = Zonneschijnduur
rr = neerslag

Weerstations in de omgeving